Location: ????????
(55.7667°N, 37.4833°E)
Time: 14:25:50
(UTC+00:00)

ARIANE 6 FM1 Upper Stage - Pass Details

Date: 19 May 2025
Orbit: 530 x 610 km, 62.0° (Epoch: 19 June)

Event Time Altitude Azimuth Distance (km) Brightness Sun altitude
Rises 18:43:38 0° 217° (SW) 2,665 6.0 -6.8°
Reaches altitude 10° 18:45:51 10° 212° (SSW) 1,779 5.0 -7.0°
Maximum altitude 18:49:43 51° 136° (SE) 683 2.7 -7.3°
Drops below altitude 10° 18:53:39 10° 61° (ENE) 1,809 5.2 -7.7°
Sets 18:55:55 0° 56° (NE) 2,715 6.2 -7.8°
